This is the latest recevied weather packets stored in our database for station/object KN6ETB-1. If no packets are shown the sender has not sent any weather packets the latest 10 day(s).
| Time | Temp. | Humidity | Pressure | Rain* | Wind** | Luminosity | Snow |
|---|---|---|---|---|---|---|---|
| 1777427037 | 22.22° C | 50% | 1014.9 hPa | 0 mm | - | 74 W/m² | - |
| 1777426735 | 22.78° C | 49% | 1015.1 hPa | 0 mm | - | 85 W/m² | - |
| 1777426432 | 22.78° C | 47% | 1015.1 hPa | 0 mm | - | 95 W/m² | - |
| 1777426128 | 22.78° C | 45% | 1015 hPa | 0 mm | - | 109 W/m² | - |
| 1777425828 | 22.78° C | 45% | 1015.2 hPa | 0 mm | - | 121 W/m² | - |
| 1777425523 | 22.78° C | 45% | 1015.1 hPa | 0 mm | - | 136 W/m² | - |
| 1777425218 | 22.78° C | 45% | 1015.1 hPa | 0 mm | - | 144 W/m² | - |
| 1777424916 | 22.78° C | 45% | 1015.3 hPa | 0 mm | - | 147 W/m² | - |
| 1777424612 | 23.33° C | 45% | 1015.1 hPa | 0 mm | - | 162 W/m² | - |
| 1777424307 | 23.33° C | 45% | 1015.1 hPa | 0 mm | - | 170 W/m² | - |
| 1777424003 | 23.33° C | 46% | 1015.1 hPa | 0 mm | - | 188 W/m² | - |
| 1777423700 | 23.33° C | 46% | 1014.9 hPa | 0 mm | - | 202 W/m² | - |
| 1777423396 | 23.89° C | 47% | 1015.2 hPa | 0 mm | - | 208 W/m² | - |
| 1777423090 | 23.33° C | 47% | 1015.2 hPa | 0 mm | - | 222 W/m² | - |
| 1777422786 | 23.89° C | 47% | 1015.1 hPa | 0 mm | - | 120 W/m² | - |
| 1777422482 | 23.33° C | 48% | 1015.2 hPa | 0 mm | - | 303 W/m² | - |
| 1777422177 | 23.89° C | 46% | 1015.3 hPa | 0 mm | - | 326 W/m² | - |
| 1777421877 | 23.33° C | 47% | 1015.2 hPa | 0 mm | - | 345 W/m² | - |
| 1777421577 | 23.33° C | 47% | 1015.2 hPa | 0 mm | - | 331 W/m² | - |
| 1777421273 | 23.33° C | 47% | 1015.3 hPa | 0 mm | - | 355 W/m² | - |
| 1777420969 | 23.89° C | 46% | 1015.1 hPa | 0 mm | - | 248 W/m² | - |
| 1777420666 | 23.89° C | 46% | 1015.4 hPa | 0 mm | - | 362 W/m² | - |
| 1777420362 | 23.33° C | 48% | 1015.3 hPa | 0 mm | - | 174 W/m² | - |
| 1777420058 | 23.33° C | 46% | 1015.1 hPa | 0 mm | - | 145 W/m² | - |
| 1777419755 | 23.89° C | 46% | 1015.3 hPa | 0 mm | - | 486 W/m² | - |
* Rain latest hour (hover to see other rain measurements)
** Current wind speed in m/s (hover to see current wind gust speed)